sat.trackr.live / text

‹ back to catalog

STARLINK-30781

NORAD 58123 · 2023-162F

PAYLOAD ACTIVE UNKNOWN

§ Identity

Operator
Country
US
Launch date
2023-10-22
Launch site
AFETR
Launch vehicle
Mass (kg)
RCS (m²)

Purposes: comms

External: N2YO · Heavens-Above · Gunter

§ Orbital elements

Epoch: 2026-09-20T07:30:07.306848Z

Period
94.27 min
Inclination
43.0030°
Eccentricity
0.0001654
Mean motion
15.27576606 rev/d
Perigee alt
481.9 km
Apogee alt
484.2 km
Semi-major
6,861.2 km
B*
3.6390e-5
RAAN
113.2402°
Arg perigee
274.0800°
Mean anomaly
85.9863°
Rev number
16,207

§ Raw data

STARLINK-307811 58123U 23162F   26263.31258457  .00000739  00000+0  36390-4 0  99902 58123  43.0030 113.2402 0001654 274.0800  85.9863 15.27576606162071

JSON: /api/v1/satellites/58123 · /tle

For live sub-satellite position, see the globe view (requires WebGL).

§ Visibility from observer

Set your observer location to see the next 7 days of passes ≥ 10°. The values pass through the URL so the page stays shareable.

No JS? Fill the form by hand. The geolocation button needs JavaScript.